STARLINK-1998 (47593 NORAD) Tracking and Keplerian Element Data

This shows tracking and keplerian element data for the satellite.

Feedback or suggestion? Click here.




ElementValue
Catalog47593
NameSTARLINK-1998
Epoch Orbit176
Epoch Day59.91667824
Epoch Year2021
RAAN3.031
Inclination53.0545
Eccentricity0.0001188
Argument of Perigee55.4447
Mean Anonmoly258.3518
Mean Motion15.59741318
Decay Rate-0.00934281
L11 47593U 21009AX 21059.91667824 -.00934281 00000-0 -12635-1 0 9997
L22 47593 53.0545 3.0310 0001188 55.4447 258.3518 15.59741318 1766

Live tracking and technical data element details for STARLINK-1998 (NORAD 47593). STARLINK-1998 can be tracked NOW for your location showing map with azimuth and elevation plus other details from your city location.

Track the satellite on the map from your city or location and see movement details for azimuth, elevation, latitude, longitude, range, height, and movement on the map or in text.







IsCatalogInMostPopularTable: catalog: 47593, numindb: 4
Update: records affected: 1



GetName: 47593 STARLINK-1998

Hit Count: updated at: Mon, 01 Mar 2021 16:49:00 GMT